Flag for Colombia Weather past 2 weeks in Cartagena, Colombia

Now
84 °F

Passing clouds.


Feels Like: 92 °F
Forecast: 81 / 91 °F
Wind: No wind

Location: Cartagena / Rafael Nunez

Current Time: Jul 29, 2014 at 10:53:32 PM

Latest Report: Jul 29, 2014 at 9:00 PM


Visibility: N/A

Pressure: 29.90 "Hg

Humidity: 74%

Dew point: 75 °F

Location of CartagenaLocation

Historic Weather in Cartagena — Graph

°F

Cartagena temperature yesterday

Maximum temperature yesterday: 91 °F (at 2:00 PM)
Minimum temperature yesterday: 79 °F (at 6:00 AM)
Average temperature yesterday: 84 °F

Past Weeks' High & Low Weather Summary

 TemperatureHumidityPressure
High95 °F (Jul 16, 1:00 PM)94% (Jul 16, 1:00 AM)29.93 "Hg (Jul 16, 1:00 AM)
Low77 °F (Jul 27, 4:00 AM)56% (Jul 25, 3:00 PM)28.72 "Hg (Jul 20, 11:00 PM)
Average85 °F78%29.82 "Hg
* Reported Jul 14 9:00 PM — Jul 29 9:00 PM, Cartagena, Weather by CustomWeather, © 2014

Note: Actual official high and low records may vary slightly from our data, if they occured in-between our weather recording intervals... More about our weather records

Advertising

Cartagena weather history for previous 24 hours

 ConditionsComfort  
Time TempWeatherWind HumidityBarometerVisibility
9:00 PM
Jul 29
84 °FPassing clouds.No wind74%29.90 "HgN/A
8:00 PM84 °FPassing clouds.No wind79%29.85 "HgN/A
7:00 PM84 °FPassing clouds.3 mph79%29.84 "HgN/A
6:00 PM86 °FBroken clouds.8 mph75%29.81 "HgN/A
5:00 PM86 °FBroken clouds.13 mph75%29.81 "HgN/A
4:00 PM88 °FScattered clouds.9 mph75%29.80 "HgN/A
3:00 PM88 °FScattered clouds.10 mph75%29.80 "HgN/A
2:00 PM91 °FScattered clouds.9 mph67%29.82 "HgN/A
1:00 PM91 °FScattered clouds.8 mph67%29.84 "HgN/A
12:00 PM88 °FPassing clouds.12 mph75%29.84 "HgN/A
11:00 AM90 °FPassing clouds.9 mph71%29.85 "HgN/A
10:00 AM91 °FSunny.2 mph63%29.86 "Hg10 mi
9:00 AM88 °FSunny.3 mph66%29.86 "Hg10 mi
8:00 AM86 °FSunny.5 mph79%29.85 "Hg10 mi
7:00 AM82 °FSunny.7 mph84%29.84 "Hg10 mi
6:00 AM81 °FScattered clouds.3 mph89%29.83 "HgN/A
5:00 AM81 °FPassing clouds.3 mph84%29.82 "HgN/A
4:00 AM81 °FPassing clouds.No wind89%29.82 "HgN/A
3:00 AM81 °FPassing clouds.No wind89%29.82 "HgN/A
2:00 AM82 °FPassing clouds.3 mph84%29.84 "HgN/A
1:00 AM82 °FClear.No wind84%29.85 "Hg10 mi
12:00 AM82 °FClear.No wind79%29.85 "Hg10 mi
11:00 PM
Jul 28
82 °FPassing clouds.5 mph84%29.85 "HgN/A
10:00 PM82 °FPassing clouds.10 mph84%29.84 "HgN/A
Weather by CustomWeather, © 2014

See weather overviewHow to use our weather pages